Regional Weather Roundup
Issued by NWS

Home | Current Version | Previous Version | Graphics & Text | Print | Product List | Glossary Off
Versions: 1 2 3 4 5 6 7 8 9 10 11 12 13 14 15 16 17 18 19 20 21 22 23 24 25 26 27 28 29 30 31 32 33 34 35 36 37 38 39 40 41 42 43 44 45 46 47 48 49 50

688
ASUS43 KTOP 260108
RWRKS

WEATHER ROUNDUP FOR KANSAS
NATIONAL WEATHER SERVICE GOODLAND KS
800 PM CDT TUE APR 25 2017

NOTE:  "FAIR" INDICATES FEW OR NO CLOUDS BELOW 12,000 FEET WITH NO
SIGNIFICANT WEATHER AND/OR OBSTRUCTIONS TO VISIBILITY.

KSZ001>006-013>018-027>032-041>047-260200-
NORTHWEST KANSAS

CITY           SKY/WX    TMP DP  RH WIND       PRES   REMARKS
GOODLAND       MOCLDY    51  41  68 NE16      29.61R
HAYS           CLOUDY    50  42  74 N17       29.60R
HILL CITY      CLOUDY    47  41  80 NE13      29.64R
RUSSELL        CLOUDY    50  41  71 N18       29.57R
$$

KSZ061>065-074>080-084>089-260200-
SOUTHWEST KANSAS

CITY           SKY/WX    TMP DP  RH WIND       PRES   REMARKS
DODGE CITY     LGT RAIN  52  48  86 N13       29.56R
ELKHART          N/A     53  42  66 E10         N/A
GARDEN CITY    CLOUDY    54  44  69 NE14      29.56R
GREAT BEND     LGT RAIN  51  44  77 N15       29.56S
PRATT          CLOUDY    49  45  87 N9        29.55R
$$

KSZ066>073-081>083-090>101-260200-
SOUTHEAST KANSAS

CITY           SKY/WX    TMP DP  RH WIND       PRES   REMARKS
CHANUTE        CLOUDY    71  62  73 SE6       29.41R
COFFEYVILLE    MOCLDY    72  63  73 SE12      29.39S
HUTCHINSON     CLOUDY    52  45  77 N12G23    29.53R
MEDICINE LODGE   N/A     54  48  80 N9        29.50R
NEWTON         CLOUDY    53  48  83 N20G25    29.48F
PARSONS        CLOUDY    72  62  71 SE6       29.41S
WICHITA INTL   CLOUDY    56  51  84 N20       29.46F
WICHITA JABRA  PTCLDY    54  51  90 N15       29.46F
WICHITA MCCONL CLOUDY    56  52  85 N14G23    29.45R
WINFIELD       CLOUDY    63  55  75 NE17G24   29.39F
$$

KSZ007>012-019>026-033>040-048>060-102>105-260200-
NORTHEAST KANSAS

CITY           SKY/WX    TMP DP  RH WIND       PRES   REMARKS
CONCORDIA      CLOUDY    45  39  79 N18       29.60R
EMPORIA        LGT RAIN  57  52  83 NW15G21   29.48R
LAWRENCE       CLOUDY    65  54  67 NW12G18   29.45R
MANHATTAN      LGT RAIN  52  45  77 VRB7      29.55R
MARYSVILLE     DRIZZLE   45  43  93 N14G21    29.57R
OLATHE IND     CLOUDY    66  59  78 CALM      29.44R
OLATHE EXE     CLOUDY    67  60  78 CALM      29.44R
SALINA         CLOUDY    52  42  69 N20       29.56R
TOPEKA BILLARD CLOUDY    60  51  72 NW10      29.48R
TOPEKA FORBES  CLOUDY    62  50  64 N15       29.47R
$$




USA.gov is the U.S. government's official web portal to all federal, state and local government web resources and services.